Weather reports worldwide

Advertisment
Stavanger/Sola, Norway (1415): temperature & dewpoint: 25.09.2020 15:00:00 - 01.10.2020 15:00:00 (CEST)Stavanger/Sola, Norway (1415): wind speed & gusts: 25.09.2020 15:00:00 - 01.10.2020 15:00:00 (CEST)Stavanger/Sola, Norway (1415): wind direction: 25.09.2020 15:00:00 - 01.10.2020 15:00:00 (CEST)Stavanger/Sola, Norway (1415): reduced air pressure: 25.09.2020 15:00:00 - 01.10.2020 15:00:00 (CEST)Stavanger/Sola, Norway (1415): visibility: 25.09.2020 15:00:00 - 01.10.2020 15:00:00 (CEST)Stavanger/Sola, Norway (1415): precipitation: 25.09.2020 15:00:00 - 01.10.2020 15:00:00 (CEST)
Date & Time tt [°C] td [°C] ff [km/h] ff [kn] fx [km/h] fx [kn] dd ppp [hPa] vv [km] rr [mm]
01.10.2020 15:00:00 17,4 9,1 44 24 58 31 ESE 1004,9 10 0,1
01.10.2020 14:00:00 17,1 9,3 37 20 63 34 ESE 1005,8 51 0,1
01.10.2020 13:00:00 17,1 9,5 39 21 74 40 ESE 1005,3 10 0,2
01.10.2020 12:00:00 16,8 9,0 41 22 72 39 ESE 1005,5 10 0,4
01.10.2020 11:00:00 16,4 9,8 42 23 61 33 ESE 1005,2 10 0,0
01.10.2020 10:00:00 16,5 10,6 35 19 57 31 ESE 1005,2 10 0,0
01.10.2020 09:00:00 15,9 10,2 31 17 56 31 SE 1005,5 10 0,1
01.10.2020 08:00:00 14,8 11,2 31 17 47 25 SE 1005,8 10 0,0
01.10.2020 07:00:00 15,3 11,1 37 20 54 29 SE 1006,0 10 0,0
01.10.2020 06:00:00 15,0 11,0 37 20 - - ESE - 10 -
01.10.2020 05:00:00 15,1 10,7 29 16 47 26 ESE 1006,3 10 0,0
01.10.2020 04:00:00 14,6 10,6 35 19 50 27 SE 1006,9 10 0,2
01.10.2020 03:00:00 14,6 9,2 22 12 51 28 ESE 1007,3 10 0,1
01.10.2020 02:00:00 14,7 9,3 28 15 51 28 SE 1008,1 10 0,0
01.10.2020 01:00:00 14,6 10,2 24 13 36 19 SE 1008,7 10 0,0
01.10.2020 00:00:00 14,0 10,2 21 11 36 19 SE 1008,9 10 0,0
30.09.2020 23:00:00 14,1 10,3 21 11 38 20 SE 1009,2 10 0,0
30.09.2020 22:00:00 14,0 10,8 22 12 37 20 SE 1009,4 10 0,0
30.09.2020 21:00:00 14,3 11,5 22 12 34 19 SE 1009,4 10 0,0
30.09.2020 20:00:00 13,7 11,6 28 15 35 19 SE 1009,4 10 0,1
30.09.2020 19:00:00 13,9 11,4 18 10 - - SSE 1009,4 10 0,2
30.09.2020 18:00:00 15,1 11,1 26 14 41 22 SE 1009,1 10 0,0
30.09.2020 17:00:00 15,7 11,1 26 14 41 22 SE 1009,4 10 0,0
30.09.2020 16:00:00 15,6 10,6 26 14 41 22 SE 1009,7 10 0,0
30.09.2020 15:00:00 15,7 10,0 29 16 45 24 SE 1010,3 10 0,0
30.09.2020 14:00:00 16,0 9,4 31 17 47 25 SE 1010,8 10 0,0
30.09.2020 13:00:00 16,3 10,6 24 13 44 24 SSE 1011,0 10 0,0
30.09.2020 12:00:00 15,4 12,0 21 11 27 15 SSE 1011,5 10 0,0
30.09.2020 11:00:00 14,7 11,7 13 7 17 9 SSE 1011,5 10 0,0
30.09.2020 10:00:00 14,3 11,8 13 7 20 11 SE 1011,8 10 0,0
30.09.2020 09:00:00 12,2 11,3 8 4 13 7 E 1011,8 10 0,0
30.09.2020 08:00:00 11,3 10,8 9 5 16 9 SE 1012,0 10 0,0
30.09.2020 07:00:00 11,7 11,2 8 4 10 5 SE 1011,9 10 0,0
30.09.2020 06:00:00 11,9 11,6 5 3 10 6 S 1011,8 10 0,0
30.09.2020 05:00:00 12,1 11,8 13 7 17 9 E 1011,6 10 0,0
30.09.2020 04:00:00 12,3 12,0 5 3 11 6 NNW 1011,6 3,0 0,3
30.09.2020 03:00:00 12,3 12,0 8 4 9 5 N 1012,0 1,9 0,6
30.09.2020 02:00:00 12,4 12,1 31 17 7 4 SE 1012,3 10 0,7
30.09.2020 01:00:00 12,4 11,9 5 3 7 4 NE 1012,5 5 0,2
30.09.2020 00:00:00 12,5 11,9 5 3 6 3 W 1013,0 4,0 0,2
29.09.2020 23:00:00 12,6 12,0 0 0 5 3 N 1013,4 5 0,5
29.09.2020 22:00:00 12,7 11,8 4 2 6 3 - 1013,7 7 0,4
29.09.2020 21:00:00 13,0 11,6 4 2 9 5 - 1013,5 9 0,5
29.09.2020 20:00:00 13,5 11,7 9 5 17 9 SE 1013,3 26 0,0
29.09.2020 19:00:00 14,1 12,0 5 3 16 8 S 1013,3 10 0,0
29.09.2020 18:00:00 14,7 12,4 4 2 9 5 SSW 1013,0 10 0,0
29.09.2020 17:00:00 15,0 12,7 9 5 14 8 S 1013,0 10 0,0
29.09.2020 16:00:00 14,9 13,1 16 9 23 13 SSE 1012,9 10 0,0
29.09.2020 15:00:00 15,2 13,4 13 7 20 11 SSE 1012,8 10 0,0
29.09.2020 14:00:00 15,4 13,4 13 7 25 13 SSE 1012,9 53 0,0
29.09.2020 13:00:00 14,8 13,7 11 6 17 9 SE 1013,0 10 0,5
29.09.2020 12:00:00 13,8 13,3 5 3 11 6 E 1012,9 7 0,9
29.09.2020 11:00:00 13,6 13,1 0 0 10 6 N 1012,7 6 1,5
29.09.2020 10:00:00 13,4 12,9 8 4 16 9 NE 1012,4 6 2,6
29.09.2020 09:00:00 13,3 12,8 0 0 5 3 N 1012,2 5 3,0
29.09.2020 08:00:00 13,4 12,8 5 3 10 5 N 1012,1 9 1,4
29.09.2020 07:00:00 13,4 12,8 4 2 8 4 - 1011,9 9 0,2
29.09.2020 06:00:00 13,4 12,8 5 3 8 4 S 1011,9 10 0,0
29.09.2020 05:00:00 13,4 12,8 5 3 9 5 NE 1011,8 10 1,1
29.09.2020 04:00:00 13,5 12,9 4 2 9 5 N 1012,0 10 0,8
29.09.2020 03:00:00 13,4 12,6 2 1 8 4 - 1012,0 10 0,0
29.09.2020 02:00:00 13,5 12,7 0 0 5 3 N 1011,9 10 0,0
29.09.2020 01:00:00 13,4 12,3 4 2 5 3 - 1012,1 10 0,0
29.09.2020 00:00:00 13,6 12,2 5 3 11 6 SE 1012,3 10 0,0
28.09.2020 23:00:00 14,0 12,4 9 5 16 9 E 1012,2 10 0,0
28.09.2020 22:00:00 14,1 12,5 2 1 6 3 ESE 1012,4 10 0,0
28.09.2020 21:00:00 14,4 12,4 4 2 5 3 - 1012,3 10 0,0
28.09.2020 20:00:00 14,5 12,4 0 0 3 2 N 1011,8 10 0,0
28.09.2020 19:00:00 14,5 12,4 4 2 8 5 - 1011,6 10 0,0
28.09.2020 18:00:00 14,7 12,6 9 5 13 7 WSW 1011,3 10 0,0
28.09.2020 17:00:00 15,1 13,0 8 4 11 6 W 1011,3 10 0,0
28.09.2020 16:00:00 15,5 13,0 9 5 12 7 WNW 1011,6 10 0,0
28.09.2020 15:00:00 16,1 12,5 9 5 13 7 W 1011,7 10 0,0
28.09.2020 14:00:00 16,4 12,7 4 2 12 6 - 1012,2 10 0,0
28.09.2020 13:00:00 15,5 12,8 5 3 9 5 N 1012,3 10 0,0
28.09.2020 12:00:00 15,2 13,0 0 0 9 5 N 1012,6 10 0,0
28.09.2020 11:00:00 14,0 12,9 2 1 4 2 - 1012,8 10 0,0
28.09.2020 10:00:00 12,9 12,3 4 2 5 3 SE 1012,8 10 0,0
28.09.2020 09:00:00 11,7 11,4 0 0 5 3 N 1012,7 10 0,0
28.09.2020 08:00:00 10,6 10,3 3 2 6 3 ESE 1012,9 22 0,0
28.09.2020 07:00:00 9,2 8,9 0 0 4 2 N 1012,9 8 0,0
28.09.2020 06:00:00 9,6 9,2 0 0 8 4 N 1013,1 10 0,0
28.09.2020 05:00:00 9,7 9,2 5 3 8 4 ESE 1013,4 10 0,0
28.09.2020 04:00:00 10,7 10,1 2 1 6 4 ESE 1013,6 22 0,0
28.09.2020 03:00:00 11,0 10,4 4 2 10 6 - 1013,6 10 0,0
28.09.2020 02:00:00 11,5 10,7 3 2 8 4 SSW 1013,8 21 0,0
28.09.2020 01:00:00 11,2 10,3 8 4 9 5 S 1013,9 10 0,0
28.09.2020 00:00:00 11,3 10,0 4 2 8 4 SSE 1013,8 10 0,0
27.09.2020 23:00:00 12,0 10,7 2 1 4 2 SW 1013,6 10 0,0
27.09.2020 22:00:00 12,7 11,1 4 2 5 3 - 1013,5 10 0,0
27.09.2020 21:00:00 13,3 11,2 4 2 5 3 SSE 1013,2 10 0,0
27.09.2020 20:00:00 13,5 11,4 4 2 7 4 SSW 1013,1 50 0,0
27.09.2020 19:00:00 14,5 11,5 4 2 9 5 - 1012,9 10 0,0
27.09.2020 18:00:00 16,4 11,4 9 5 15 8 W 1012,6 10 0,0
27.09.2020 17:00:00 16,4 11,6 8 4 16 9 WNW 1012,3 10 0,0
27.09.2020 16:00:00 17,7 12,2 4 2 11 6 - 1012,3 10 0,0
27.09.2020 15:00:00 17,1 11,4 0 0 10 5 N 1012,4 10 0,0
27.09.2020 14:00:00 15,9 10,5 0 0 6 4 N 1012,4 10 0,0
27.09.2020 13:00:00 15,4 11,0 0 0 5 3 N 1012,3 10 0,0
27.09.2020 12:00:00 14,6 10,8 4 2 8 4 - 1012,1 10 0,0
27.09.2020 11:00:00 14,1 9,5 2 1 5 3 - 1011,7 10 0,0
27.09.2020 10:00:00 13,4 9,7 4 2 8 4 - 1011,6 10 0,0
27.09.2020 09:00:00 12,8 9,6 4 2 8 5 - 1011,4 10 0,0
27.09.2020 08:00:00 11,5 8,4 6 3 11 6 N 1011,3 71 0,0
27.09.2020 07:00:00 12,2 8,9 8 4 13 7 ENE 1011,0 10 0,0
27.09.2020 06:00:00 12,6 8,3 4 2 11 6 - 1010,9 10 0,0
27.09.2020 05:00:00 12,0 8,7 0 0 5 3 N 1011,0 10 0,0
27.09.2020 04:00:00 9,6 7,2 4 2 5 3 ENE 1011,2 10 0,0
27.09.2020 03:00:00 8,7 7,5 5 3 7 4 NE 1011,0 10 0,0
27.09.2020 02:00:00 8,5 7,0 2 1 7 4 - 1011,3 10 0,0
27.09.2020 01:00:00 9,0 7,5 0 0 5 3 N 1011,2 10 0,0
27.09.2020 00:00:00 10,0 7,9 2 1 6 3 - 1010,7 10 0,0
26.09.2020 23:00:00 11,4 8,4 2 1 6 3 - 1010,2 10 0,0
26.09.2020 22:00:00 11,2 8,1 5 3 8 4 N 1009,5 10 0,0
26.09.2020 21:00:00 12,2 7,7 4 2 11 6 - 1008,6 10 0,0
26.09.2020 20:00:00 12,5 8,2 5 3 17 9 NE 1008,2 75 0,0
26.09.2020 19:00:00 13,8 9,0 13 7 21 11 N 1007,5 10 0,0
26.09.2020 18:00:00 15,2 7,7 18 10 27 14 N 1006,8 10 0,0
26.09.2020 17:00:00 15,7 7,7 18 10 28 15 N 1006,4 10 0,0
26.09.2020 16:00:00 16,4 7,4 21 11 29 15 N 1005,8 10 0,0
26.09.2020 15:00:00 15,8 7,3 22 12 29 16 N 1005,1 10 0,0
26.09.2020 14:00:00 15,9 7,2 22 12 29 16 N 1005,0 10 0,0
26.09.2020 13:00:00 15,3 6,9 16 9 27 15 N 1004,7 10 0,0
26.09.2020 12:00:00 14,6 7,2 16 9 28 15 N 1004,5 10 0,0
26.09.2020 11:00:00 13,9 6,5 21 11 27 15 N 1004,0 10 0,0
26.09.2020 10:00:00 13,3 7,3 15 8 24 13 N 1003,5 10 0,0
26.09.2020 09:00:00 11,8 6,7 4 2 19 10 - 1002,5 10 0,0
26.09.2020 08:00:00 10,8 6,6 5 3 18 10 - 1001,9 10 0,0
26.09.2020 07:00:00 10,5 6,7 16 9 21 12 N 1001,8 10 0,0
26.09.2020 06:00:00 10,9 7,0 22 12 29 16 N 1001,6 10 0,0
26.09.2020 05:00:00 11,4 6,5 18 10 24 13 N 1001,4 10 0,0
26.09.2020 04:00:00 11,7 6,8 18 10 24 13 N 1001,2 10 0,0
26.09.2020 03:00:00 12,0 7,1 18 10 26 14 N 1001,8 10 0,0
26.09.2020 02:00:00 12,0 6,7 18 10 26 14 N 1002,1 10 0,0
26.09.2020 01:00:00 12,2 7,3 16 9 25 13 N 1002,1 10 0,0
26.09.2020 00:00:00 12,0 7,9 16 9 22 12 N 1002,3 10 0,0
25.09.2020 23:00:00 12,3 7,4 15 8 22 12 NNE 1002,6 10 0,0
25.09.2020 22:00:00 12,2 8,5 11 6 22 12 NNE 1002,6 10 0,0
25.09.2020 21:00:00 11,9 9,3 11 6 18 10 NNE 1002,8 10 0,0
25.09.2020 20:00:00 11,6 9,7 11 6 20 11 NNE 1002,5 10 0,0
25.09.2020 19:00:00 11,4 9,8 9 5 20 11 NNE 1002,3 10 0,0
25.09.2020 18:00:00 11,9 9,5 11 6 18 10 N 1002,5 10 0,1
25.09.2020 17:00:00 12,2 9,8 15 8 22 12 N 1002,1 10 0,0
25.09.2020 16:00:00 11,2 8,4 15 8 22 12 N 1001,9 10 0,0
25.09.2020 15:00:00 11,5 8,7 15 8 20 11 N 1002,1 10 0,0

tt = temperature
td = dewpoint
ff = wind speed
fx = gusts
dd = wind direction
ppp = reduced air pressure
vv = visibility
rr = precipitation

Next stations